Location: Santa Giusta
(39.8800°N, 8.6069°E)
Time: 17:39:00
(UTC+00:00)

Okean O Rocket - Pass Details

Date: 02 February 2023
Orbit: 620 x 643 km, 98.1° (Epoch: 30 March)

Event Time Altitude Azimuth Distance (km) Brightness Sun altitude
Rises 17:16:28 0° 115° (ESE) 2,911 4.6 -6.4°
Reaches altitude 10° 17:19:58 10° 85° (E) 2,016 3.5 -7.1°
Maximum altitude 17:21:38 12° 62° (ENE) 1,886 3.4 -7.4°
Drops below altitude 10° 17:23:19 10° 40° (NE) 2,027 3.7 -7.7°
Sets 17:26:51 0° 10° (N) 2,947 4.8 -8.3°
